Regional Weather Roundup
Issued by NWS

Home | Current Version | Previous Version | Text Only | Print | Product List | Glossary On
Versions: 1 2 3 4 5 6 7 8 9 10 11 12 13 14 15 16 17 18 19 20 21 22 23 24 25 26 27 28 29 30 31 32 33 34 35 36 37 38 39 40 41 42 43 44 45 46 47 48 49 50
000
ASUS42 KFFC 200410
RWRGA
WEATHER ROUNDUP FOR GEORGIA
NATIONAL WEATHER SERVICE PEACHTREE CITY GA
1200 AM EDT FRI OCT 20 2017

NOTE: "FAIR" INDICATES FEW OR NO CLOUDS BELOW 12,000 FEET WITH NO
SIGNIFICANT WEATHER AND/OR OBSTRUCTIONS TO VISIBILITY.

* = USE WITH CAUTION. THE STATIONS MARKED WITH AN ASTERISK MAY NOT
REPORT WEATHER SUCH AS PRECIPITATION, FOG, OR THUNDER AND ARE NOT
QUALITY CONTROLLED BY NWS.

THE REMARK "TC" DENOTES TEMPERATURE READING IN DEGREES CELSIUS.

GAZ001>058-200500-
NORTH GEORGIA

CITY           SKY/WX    TMP DP  RH WIND       PRES   REMARKS
ATLANTA        FAIR      60  46  59 CALM      30.26S
ATHENS         FAIR      48  47  96 CALM      30.26R
CHAMBLEE       FAIR      48  46  93 CALM      30.26S
PEACHTREE CITY FAIR      48  46  93 CALM      30.27S
ROME           FAIR      49  48  97 NE3       30.26S
WEST ATLANTA   FAIR      50  49  96 CALM      30.26S
GAINESVILLE    FAIR      54  49  83 CALM      30.29R
CARTERSVILLE   FAIR      45  45 100 CALM      30.27F


CITY           SKY/WX    TMP DP  RH WIND       PRES   REMARKS
DALTON*        FAIR      46  46 100 CALM      30.29S
LAWRENCEVILLE* FAIR      48  46  93 CALM        N/A
MARIETTA       FAIR      52  48  85 CALM      30.26S
KENNESAW*      FAIR      51  48  89 CALM      30.27S
CANTON*        FAIR      52  52 100 CALM      30.28S
$$

GAZ059>098-102>109-200500-
CENTRAL GEORGIA

CITY           SKY/WX    TMP DP  RH WIND       PRES   REMARKS
AUGUSTA-BUSH   FAIR      52  49  89 CALM      30.25R
AUGUSTA-DANIEL FAIR      61  46  57 CALM      30.25S
COLUMBUS       FAIR      62  50  64 CALM      30.24R
MACON          FAIR      52  51  97 W5        30.25R
ROBINS AFB     FAIR      54  52  92 CALM      30.24R


CITY           SKY/WX    TMP DP  RH WIND       PRES   REMARKS
LAGRANGE*      FOG       49  48  98 CALM      30.26S VSB 1
SYLVANIA*      FAIR      54  54  98 CALM      30.24S
MILLEDGEVILLE* FAIR      54  54 100 CALM      30.26S
$$

GAZ099>101-110>166-200500-
SOUTH GEORGIA

CITY           SKY/WX    TMP DP  RH WIND       PRES   REMARKS
SAVANNAH       FAIR      61  59  93 CALM      30.23R
VALDOSTA       FAIR      61  58  90 NE3       30.20S
ALMA           FAIR      58  57  97 CALM      30.22S
ST SIMONS      FAIR      72  63  73 NE9       30.19S
FT STEWART     FAIR      60  58  93 CALM      30.21R
ALBANY         FAIR      58  54  86 CALM      30.24R
HUNTER AFB     FAIR      64  61  88 NE3       30.20R
MOODY AFB      FAIR      63  58  84 NE3       30.20S
BRUNSWICK      FAIR      61  57  88 CALM      30.21S


CITY           SKY/WX    TMP DP  RH WIND       PRES   REMARKS
BAINBRIDGE*    FAIR      64  59  82 CALM      30.21S
MOULTRIE*      FAIR      66  55  68 NE3       30.22S
VIDALIA*       FAIR      61  54  77 NE3       30.24S
WAYCROSS*      FAIR      59  56  90 N3        30.21S
DOUGLAS*       FAIR      61  55  82 NE3       30.23S
$$



USA.gov is the U.S. government's official web portal to all federal, state and local government web resources and services.